Terug naar catalogus

STARLINK-36790

ActiefCommunicatieVLEO
NORAD 68095·PAYLOAD·🇺🇸 United States

Gelanceerd Mar 4, 2026 vanaf Vandenberg Space Force Base

Loading…

Volgende Passages (komende 24 uur)

TLE

VersSource: CelesTrak SupGP

Epoch: Sep 14, 2026, 23:16 UTC

1 68095C 26042AC  26257.96993056 -.00013188  00000+0 -38976-3 0  2576
2 68095  53.1599  15.3964 0001240  86.4876 252.7786 15.34387820    15

Volg STARLINK-36790 in realtime met AllMySat

Download on the App Store